Retour au catalogue

OSCAR 5

ActifRadio amateurSSO
NORAD 4321·PAYLOAD·🇦🇺 Australia

Lancé Jan 23, 1970 depuis Vandenberg Space Force Base

Loading…

Prochains Passages (prochaines 24 heures)

TLE

FraisSource: Space-Track

Époque: Sep 14, 2026, 11:59 UTC

1 04321U 70008B   26257.49970381 -.00000047  00000-0 -28755-4 0  9992
2 04321 101.3261 261.8938 0028068  87.6000  65.2727 12.52192931588621

Suivez OSCAR 5 en temps réel avec AllMySat

Download on the App Store